Time,TemperatureF,DewpointF,PressureIn,WindDirection,WindDirectionDegrees,WindSpeedMPH,WindSpeedGustMPH,Humidity,HourlyPrecipIn,Conditions,Clouds,dailyrainin,SoftwareType,DateUTC
2013-01-03 00:00:00,43.0,37.0,-100.00,North,353,10.0,-999.0,80,0.00,,,-99.99,,2013-01-03 06:00:00,
2013-01-03 00:22:00,43.0,37.0,-100.00,North,353,10.0,-999.0,80,0.00,,,-99.99,,2013-01-03 06:22:00,
2013-01-03 00:32:00,43.0,37.0,-100.00,North,353,10.0,-999.0,80,0.00,,,-99.99,,2013-01-03 06:32:00,
2013-01-03 00:42:00,43.0,37.0,-100.00,North,353,10.0,-999.0,80,0.00,,,-99.99,,2013-01-03 06:42:00,
2013-01-03 00:52:00,43.0,37.0,-100.00,North,353,10.0,-999.0,80,0.00,,,-99.99,,2013-01-03 06:52:00,
2013-01-03 01:00:00,43.0,38.0,-100.00,NNW,343,13.0,-999.0,83,0.00,,,-99.99,,2013-01-03 07:00:00,
2013-01-03 01:22:00,43.0,38.0,-100.00,NNW,343,13.0,-999.0,83,0.00,,,-99.99,,2013-01-03 07:22:00,
2013-01-03 01:33:00,43.0,38.0,-100.00,NNW,343,13.0,-999.0,83,0.00,,,-99.99,,2013-01-03 07:33:00,
2013-01-03 01:42:00,43.0,38.0,-100.00,NNW,343,13.0,-999.0,83,0.00,,,-99.99,,2013-01-03 07:42:00,
2013-01-03 01:53:00,43.0,38.0,-100.00,NNW,343,13.0,-999.0,83,0.00,,,-99.99,,2013-01-03 07:53:00,
2013-01-03 02:00:00,43.0,38.0,-100.00,North,353,11.0,-999.0,82,0.00,,,-99.99,,2013-01-03 08:00:00,
2013-01-03 02:22:00,43.0,38.0,-100.00,North,353,11.0,-999.0,82,0.00,,,-99.99,,2013-01-03 08:22:00,
2013-01-03 02:33:00,43.0,38.0,-100.00,North,353,11.0,-999.0,82,0.00,,,-99.99,,2013-01-03 08:33:00,
2013-01-03 02:42:00,43.0,38.0,-100.00,North,353,11.0,-999.0,82,0.00,,,-99.99,,2013-01-03 08:42:00,
2013-01-03 02:53:00,43.0,38.0,-100.00,North,353,11.0,-999.0,82,0.00,,,-99.99,,2013-01-03 08:53:00,
2013-01-03 03:00:00,43.0,38.0,-100.00,North,358,13.0,-999.0,81,0.00,,,-99.99,,2013-01-03 09:00:00,
2013-01-03 03:22:00,43.0,38.0,-100.00,North,358,13.0,-999.0,81,0.00,,,-99.99,,2013-01-03 09:22:00,
2013-01-03 03:33:00,43.0,38.0,-100.00,North,358,13.0,-999.0,81,0.00,,,-99.99,,2013-01-03 09:33:00,
2013-01-03 03:43:00,43.0,38.0,-100.00,North,358,13.0,-999.0,81,0.00,,,-99.99,,2013-01-03 09:43:00,
2013-01-03 03:53:00,43.0,38.0,-100.00,North,358,13.0,-999.0,81,0.00,,,-99.99,,2013-01-03 09:53:00,
2013-01-03 04:00:00,43.0,38.0,-100.00,North,4,16.0,-999.0,80,0.00,,,-99.99,,2013-01-03 10:00:00,
2013-01-03 04:22:00,43.0,38.0,-100.00,North,4,16.0,-999.0,80,0.00,,,-99.99,,2013-01-03 10:22:00,
2013-01-03 04:33:00,43.0,38.0,-100.00,North,4,16.0,-999.0,80,0.00,,,-99.99,,2013-01-03 10:33:00,
2013-01-03 04:42:00,43.0,38.0,-100.00,North,4,16.0,-999.0,80,0.00,,,-99.99,,2013-01-03 10:42:00,
2013-01-03 04:53:00,43.0,38.0,-100.00,North,4,16.0,-999.0,80,0.00,,,-99.99,,2013-01-03 10:53:00,
2013-01-03 05:00:00,43.0,37.0,-100.00,NNE,15,15.0,-999.0,80,0.00,,,-99.99,,2013-01-03 11:00:00,
2013-01-03 05:23:00,43.0,37.0,-100.00,NNE,15,15.0,-999.0,80,0.00,,,-99.99,,2013-01-03 11:23:00,
2013-01-03 05:33:00,43.0,37.0,-100.00,NNE,15,15.0,-999.0,80,0.00,,,-99.99,,2013-01-03 11:33:00,
2013-01-03 05:43:00,43.0,37.0,-100.00,NNE,15,15.0,-999.0,80,0.00,,,-99.99,,2013-01-03 11:43:00,
2013-01-03 05:53:00,43.0,37.0,-100.00,NNE,15,15.0,-999.0,80,0.00,,,-99.99,,2013-01-03 11:53:00,
2013-01-03 06:00:00,43.0,37.0,-100.00,NNE,14,15.0,-999.0,78,0.00,,,-99.99,,2013-01-03 12:00:00,
2013-01-03 06:22:00,43.0,37.0,-100.00,NNE,14,15.0,-999.0,78,0.00,,,-99.99,,2013-01-03 12:22:00,
2013-01-03 06:33:00,43.0,37.0,-100.00,NNE,14,15.0,-999.0,78,0.00,,,-99.99,,2013-01-03 12:33:00,
2013-01-03 06:42:00,43.0,37.0,-100.00,NNE,14,15.0,-999.0,78,0.00,,,-99.99,,2013-01-03 12:42:00,
2013-01-03 06:53:00,43.0,37.0,-100.00,NNE,14,15.0,-999.0,78,0.00,,,-99.99,,2013-01-03 12:53:00,
2013-01-03 07:00:00,43.0,37.0,-100.00,NNE,18,16.0,-999.0,79,0.00,,,-99.99,,2013-01-03 13:00:00,
2013-01-03 07:22:00,43.0,37.0,-100.00,NNE,18,16.0,-999.0,79,0.00,,,-99.99,,2013-01-03 13:22:00,
2013-01-03 07:33:00,43.0,37.0,-100.00,NNE,18,16.0,-999.0,79,0.00,,,-99.99,,2013-01-03 13:33:00,
2013-01-03 07:42:00,43.0,37.0,-100.00,NNE,18,16.0,-999.0,79,0.00,,,-99.99,,2013-01-03 13:42:00,
2013-01-03 07:53:00,43.0,37.0,-100.00,NNE,18,16.0,-999.0,79,0.00,,,-99.99,,2013-01-03 13:53:00,
2013-01-03 08:00:00,43.0,36.0,-100.00,NNE,16,19.0,-999.0,78,0.00,,,-99.99,,2013-01-03 14:00:00,
2013-01-03 08:23:00,43.0,36.0,-100.00,NNE,16,19.0,-999.0,78,0.00,,,-99.99,,2013-01-03 14:23:00,
2013-01-03 08:33:00,43.0,36.0,-100.00,NNE,16,19.0,-999.0,78,0.00,,,-99.99,,2013-01-03 14:33:00,
2013-01-03 08:42:00,43.0,36.0,-100.00,NNE,16,19.0,-999.0,78,0.00,,,-99.99,,2013-01-03 14:42:00,
2013-01-03 08:53:00,43.0,36.0,-100.00,NNE,16,19.0,-999.0,78,0.00,,,-99.99,,2013-01-03 14:53:00,
2013-01-03 09:00:00,43.0,36.0,-100.00,NNE,12,15.0,-999.0,76,0.00,,,-99.99,,2013-01-03 15:00:00,
2013-01-03 09:22:00,43.0,36.0,-100.00,NNE,12,15.0,-999.0,76,0.00,,,-99.99,,2013-01-03 15:22:00,
2013-01-03 09:33:00,43.0,36.0,-100.00,NNE,12,15.0,-999.0,76,0.00,,,-99.99,,2013-01-03 15:33:00,
2013-01-03 09:43:00,43.0,36.0,-100.00,NNE,12,15.0,-999.0,76,0.00,,,-99.99,,2013-01-03 15:43:00,
2013-01-03 09:53:00,43.0,36.0,-100.00,NNE,12,15.0,-999.0,76,0.00,,,-99.99,,2013-01-03 15:53:00,
2013-01-03 10:00:00,43.0,36.0,-100.00,NNE,18,19.0,-999.0,75,0.00,,,-99.99,,2013-01-03 16:00:00,
2013-01-03 10:22:00,43.0,36.0,-100.00,NNE,18,19.0,-999.0,75,0.00,,,-99.99,,2013-01-03 16:22:00,
2013-01-03 10:33:00,43.0,36.0,-100.00,NNE,18,19.0,-999.0,75,0.00,,,-99.99,,2013-01-03 16:33:00,
2013-01-03 10:43:00,43.0,36.0,-100.00,NNE,18,19.0,-999.0,75,0.00,,,-99.99,,2013-01-03 16:43:00,
2013-01-03 10:53:00,43.0,36.0,-100.00,NNE,18,19.0,-999.0,75,0.00,,,-99.99,,2013-01-03 16:53:00,
2013-01-03 11:00:00,44.0,35.0,-100.00,NNE,20,16.0,-999.0,72,0.00,,,-99.99,,2013-01-03 17:00:00,
2013-01-03 11:23:00,44.0,35.0,-100.00,NNE,20,16.0,-999.0,72,0.00,,,-99.99,,2013-01-03 17:23:00,
2013-01-03 11:33:00,44.0,35.0,-100.00,NNE,20,16.0,-999.0,72,0.00,,,-99.99,,2013-01-03 17:33:00,
2013-01-03 11:43:00,44.0,35.0,-100.00,NNE,20,16.0,-999.0,72,0.00,,,-99.99,,2013-01-03 17:43:00,
2013-01-03 11:53:00,44.0,35.0,-100.00,NNE,20,16.0,-999.0,72,0.00,,,-99.99,,2013-01-03 17:53:00,
2013-01-03 12:00:00,45.0,35.0,-100.00,North,7,16.0,-999.0,69,0.00,,,-99.99,,2013-01-03 18:00:00,
2013-01-03 12:22:00,45.0,35.0,-100.00,North,7,16.0,-999.0,69,0.00,,,-99.99,,2013-01-03 18:22:00,
2013-01-03 12:33:00,45.0,35.0,-100.00,North,7,16.0,-999.0,69,0.00,,,-99.99,,2013-01-03 18:33:00,
2013-01-03 12:42:00,45.0,35.0,-100.00,North,7,16.0,-999.0,69,0.00,,,-99.99,,2013-01-03 18:42:00,
2013-01-03 12:53:00,45.0,35.0,-100.00,North,7,16.0,-999.0,69,0.00,,,-99.99,,2013-01-03 18:53:00,
2013-01-03 13:00:00,46.0,34.0,-100.00,North,2,16.0,-999.0,63,0.00,,,-99.99,,2013-01-03 19:00:00,
2013-01-03 13:56:00,46.0,34.0,-100.00,North,2,16.0,-999.0,63,0.00,,,-99.99,,2013-01-03 19:56:00,
2013-01-03 14:00:00,47.0,33.0,-100.00,NNE,16,16.0,-999.0,58,0.00,,,-99.99,,2013-01-03 20:00:00,
2013-01-03 14:22:00,47.0,33.0,-100.00,NNE,16,16.0,-999.0,58,0.00,,,-99.99,,2013-01-03 20:22:00,
2013-01-03 14:33:00,47.0,33.0,-100.00,NNE,16,16.0,-999.0,58,0.00,,,-99.99,,2013-01-03 20:33:00,
2013-01-03 14:42:00,47.0,33.0,-100.00,NNE,16,16.0,-999.0,58,0.00,,,-99.99,,2013-01-03 20:42:00,
2013-01-03 14:53:00,47.0,33.0,-100.00,NNE,16,16.0,-999.0,58,0.00,,,-99.99,,2013-01-03 20:53:00,
2013-01-03 15:00:00,48.0,33.0,-100.00,NNE,17,16.0,-999.0,56,0.00,,,-99.99,,2013-01-03 21:00:00,
2013-01-03 15:22:00,48.0,33.0,-100.00,NNE,17,16.0,-999.0,56,0.00,,,-99.99,,2013-01-03 21:22:00,
2013-01-03 15:36:00,48.0,33.0,-100.00,NNE,17,16.0,-999.0,56,0.00,,,-99.99,,2013-01-03 21:36:00,
2013-01-03 15:48:00,48.0,33.0,-100.00,NNE,17,16.0,-999.0,56,0.00,,,-99.99,,2013-01-03 21:48:00,
2013-01-03 16:00:00,49.0,33.0,-100.00,North,9,14.0,-999.0,55,0.00,,,-99.99,,2013-01-03 22:00:00,
2013-01-03 16:22:00,49.0,33.0,-100.00,North,9,14.0,-999.0,55,0.00,,,-99.99,,2013-01-03 22:22:00,
2013-01-03 16:33:00,49.0,33.0,-100.00,North,9,14.0,-999.0,55,0.00,,,-99.99,,2013-01-03 22:33:00,
2013-01-03 16:42:00,49.0,33.0,-100.00,North,9,14.0,-999.0,55,0.00,,,-99.99,,2013-01-03 22:42:00,
2013-01-03 16:52:00,49.0,33.0,-100.00,North,9,14.0,-999.0,55,0.00,,,-99.99,,2013-01-03 22:52:00,
2013-01-03 17:00:00,49.0,33.0,-100.00,NNE,16,14.0,-999.0,54,0.00,,,-99.99,,2013-01-03 23:00:00,
2013-01-03 17:22:00,49.0,33.0,-100.00,NNE,16,14.0,-999.0,54,0.00,,,-99.99,,2013-01-03 23:22:00,
2013-01-03 17:33:00,49.0,33.0,-100.00,NNE,16,14.0,-999.0,54,0.00,,,-99.99,,2013-01-03 23:33:00,
2013-01-03 17:43:00,49.0,33.0,-100.00,NNE,16,14.0,-999.0,54,0.00,,,-99.99,,2013-01-03 23:43:00,
2013-01-03 17:53:00,49.0,33.0,-100.00,NNE,16,14.0,-999.0,54,0.00,,,-99.99,,2013-01-03 23:53:00,
2013-01-03 18:00:00,49.0,34.0,-100.00,North,10,14.0,-999.0,56,0.00,,,-99.99,,2013-01-04 00:00:00,
2013-01-03 18:22:00,49.0,34.0,-100.00,North,10,14.0,-999.0,56,0.00,,,-99.99,,2013-01-04 00:22:00,
2013-01-03 18:32:00,49.0,34.0,-100.00,North,10,14.0,-999.0,56,0.00,,,-99.99,,2013-01-04 00:32:00,
2013-01-03 18:42:00,49.0,34.0,-100.00,North,10,14.0,-999.0,56,0.00,,,-99.99,,2013-01-04 00:42:00,
2013-01-03 18:53:00,49.0,34.0,-100.00,North,10,14.0,-999.0,56,0.00,,,-99.99,,2013-01-04 00:53:00,
2013-01-03 19:00:00,49.0,35.0,-100.00,North,5,13.0,-999.0,59,0.00,,,-99.99,,2013-01-04 01:00:00,
2013-01-03 19:22:00,49.0,35.0,-100.00,North,5,13.0,-999.0,59,0.00,,,-99.99,,2013-01-04 01:22:00,
2013-01-03 19:32:00,49.0,35.0,-100.00,North,5,13.0,-999.0,59,0.00,,,-99.99,,2013-01-04 01:32:00,
2013-01-03 19:42:00,49.0,35.0,-100.00,North,5,13.0,-999.0,59,0.00,,,-99.99,,2013-01-04 01:42:00,
2013-01-03 19:52:00,49.0,35.0,-100.00,North,5,13.0,-999.0,59,0.00,,,-99.99,,2013-01-04 01:52:00,
2013-01-03 20:00:00,48.0,36.0,-100.00,North,360,12.0,-999.0,61,0.00,,,-99.99,,2013-01-04 02:00:00,
2013-01-03 20:22:00,48.0,36.0,-100.00,North,360,12.0,-999.0,61,0.00,,,-99.99,,2013-01-04 02:22:00,
2013-01-03 20:32:00,48.0,36.0,-100.00,North,360,12.0,-999.0,61,0.00,,,-99.99,,2013-01-04 02:32:00,
2013-01-03 20:42:00,48.0,36.0,-100.00,North,360,12.0,-999.0,61,0.00,,,-99.99,,2013-01-04 02:42:00,
2013-01-03 20:53:00,48.0,36.0,-100.00,North,360,12.0,-999.0,61,0.00,,,-99.99,,2013-01-04 02:53:00,
2013-01-03 21:00:00,48.0,36.0,-100.00,North,10,13.0,-999.0,62,0.00,,,-99.99,,2013-01-04 03:00:00,
2013-01-03 21:22:00,48.0,36.0,-100.00,North,10,13.0,-999.0,62,0.00,,,-99.99,,2013-01-04 03:22:00,
2013-01-03 21:32:00,48.0,36.0,-100.00,North,10,13.0,-999.0,62,0.00,,,-99.99,,2013-01-04 03:32:00,
2013-01-03 21:42:00,48.0,36.0,-100.00,North,10,13.0,-999.0,62,0.00,,,-99.99,,2013-01-04 03:42:00,
2013-01-03 21:53:00,48.0,36.0,-100.00,North,10,13.0,-999.0,62,0.00,,,-99.99,,2013-01-04 03:53:00,
2013-01-03 22:00:00,48.0,36.0,-100.00,NNE,27,11.0,-999.0,64,0.00,,,-99.99,,2013-01-04 04:00:00,
2013-01-03 22:22:00,48.0,36.0,-100.00,NNE,27,11.0,-999.0,64,0.00,,,-99.99,,2013-01-04 04:22:00,
2013-01-03 22:32:00,48.0,36.0,-100.00,NNE,27,11.0,-999.0,64,0.00,,,-99.99,,2013-01-04 04:32:00,
2013-01-03 22:42:00,48.0,36.0,-100.00,NNE,27,11.0,-999.0,64,0.00,,,-99.99,,2013-01-04 04:42:00,
2013-01-03 22:52:00,48.0,36.0,-100.00,NNE,27,11.0,-999.0,64,0.00,,,-99.99,,2013-01-04 04:52:00,
2013-01-03 23:00:00,47.0,37.0,-100.00,NNE,13,12.0,-999.0,67,0.00,,,-99.99,,2013-01-04 05:00:00,
2013-01-03 23:22:00,47.0,37.0,-100.00,NNE,13,12.0,-999.0,67,0.00,,,-99.99,,2013-01-04 05:22:00,
2013-01-03 23:33:00,47.0,37.0,-100.00,NNE,13,12.0,-999.0,67,0.00,,,-99.99,,2013-01-04 05:33:00,
2013-01-03 23:42:00,47.0,37.0,-100.00,NNE,13,12.0,-999.0,67,0.00,,,-99.99,,2013-01-04 05:42:00,
2013-01-03 23:53:00,47.0,37.0,-100.00,NNE,13,12.0,-999.0,67,0.00,,,-99.99,,2013-01-04 05:53:00,